Location: Unspecified
(0.0000°N, 0.0000°E)
Time: 16:32:21
(UTC+00:00)

Courier 1B Rocket - Visible Passes

Search period start: 30 May 2015 00:00
Search period end: 09 June 2015 00:00
Orbit: 920 x 1202 km, 28.3° (Epoch: 29 May)

Date Brightness Start Highest point End Pass type
(mag) Time Alt. Az. Time Alt. Az. Time Alt. Az.
30 May 6.3 04:04:05 24° S 04:05:40 26° SSE 04:11:14 10° E visible
30 May 6.4 19:17:35 10° W 19:23:46 30° SSW 19:27:15 19° SSE visible
31 May 7.2 03:07:03 14° SE 03:07:03 14° SE 03:08:38 10° ESE visible
31 May 5.3 04:53:26 18° SW 04:58:15 63° SSE 05:05:07 10° ENE visible
31 May 6.0 18:15:32 10° WNW 18:22:35 46° SSW 18:29:08 10° SE visible
31 May 7.1 20:13:26 10° SW 20:16:35 13° SSW 20:16:35 13° SSW visible
01 Jun 5.7 03:56:23 38° SSE 03:57:13 40° SSE 04:03:27 10° E visible
01 Jun 6.9 19:10:07 10° WSW 19:15:20 21° SSW 19:19:30 12° SSE visible
02 Jun 7.1 02:59:20 18° ESE 02:59:20 18° ESE 03:01:28 10° E visible
02 Jun 5.0 04:45:43 25° WSW 04:49:41 84° NNW 04:56:33 10° ENE visible
03 Jun 5.0 03:48:39 64° SSE 03:48:42 64° SSE 03:55:16 10° ENE visible
03 Jun 7.2 19:03:21 10° SW 19:07:03 14° SSW 19:10:24 10° S visible
04 Jun 7.0 02:51:33 21° E 02:51:33 21° E 02:53:43 10° E visible
04 Jun 5.3 04:37:56 28° W 04:41:11 53° NNW 04:47:42 10° NE visible
05 Jun 5.0 03:40:49 72° NNE 03:40:49 72° NNE 03:46:44 10° ENE visible
05 Jun 6.6 05:28:58 10° WNW 05:33:57 23° NNW 05:39:03 10° NNE visible
06 Jun 7.1 02:43:41 20° ENE 02:43:41 20° ENE 02:45:34 10° ENE visible
06 Jun 6.0 04:30:03 24° WNW 04:32:45 33° NNW 04:38:34 10° NE visible
07 Jun 5.7 03:32:53 44° N 03:32:53 44° N 03:37:54 10° NE visible
07 Jun 7.0 05:22:15 10° NW 05:25:45 15° NNW 05:29:08 10° N visible
08 Jun 7.3 02:35:41 17° NE 02:35:41 17° NE 02:37:03 10° NE visible
08 Jun 6.5 04:22:03 17° NW 04:24:26 21° NNW 04:29:07 10° NNE visible
